Regional Weather Roundup
Issued by NWS

Home | Current Version | Previous Version | Graphics & Text | Print | Product List | Glossary On
Versions: 1 2 3 4 5 6 7 8 9 10 11 12 13 14 15 16 17 18 19 20 21 22 23 24 25 26 27 28 29 30 31 32 33 34 35 36 37 38 39 40 41 42 43 44 45 46 47 48 49 50
008
ASUS43 KOAX 221510
RWRNE

WEATHER ROUNDUP FOR NEBRASKA
NATIONAL WEATHER SERVICE OMAHA NE
1000 AM CDT FRI SEP 22 2017

NOTES: SATELLITE DATA IS BEING USED TO AUGMENT CLOUD COVER ABOVE
       12000 FEET.
       "FAIR" INDICATES FEW OR NO CLOUDS BELOW 12,000 FEET WITH NO
       SIGNIFICANT WEATHER AND/OR OBSTRUCTIONS TO VISIBILITY.


NEZ001>004-019>022-054>056-221600-
NEBRASKA PANHANDLE

CITY           SKY/WX    TMP DP  RH WIND       PRES   REMARKS
SCOTTSBLUFF    SUNNY     52  40  63 W9        29.83R
ALLIANCE       SUNNY     53  42  66 N12G23    29.80R
CHADRON        CLOUDY    53  35  50 NW9       29.82R
GORDON         PTSUNNY   55  42  60 NW12      29.79R
KIMBALL        SUNNY     52  40  64 N13       29.84R
SIDNEY         SUNNY     56  42  59 N12       29.83R
$$

NEZ057>060-069>072-079>082-221600-
SOUTHWEST NEBRASKA

CITY           SKY/WX    TMP DP  RH WIND       PRES   REMARKS
NORTH PLATTE   SUNNY     78  59  51 S20G26    29.73R
IMPERIAL       SUNNY     71  44  37 S15       29.76R
LEXINGTON      SUNNY     82  63  51 S21       29.76R
MCCOOK         LGT RAIN  81  60  48 S28G36    29.74S
OGALLALA       SUNNY     60  44  55 NW6       29.76S
$$

NEZ005>010-023>029-035>040-094-221600-
NORTH CENTRAL NEBRASKA

CITY           SKY/WX    TMP DP  RH WIND       PRES   REMARKS
VALENTINE      SUNNY     60  46  59 W15       29.73R
AINSWORTH      SUNNY     76  64  65 SW16G29   29.71R
BROKEN BOW     SUNNY     80  64  58 S25G33    29.73S
O`NEILL        SUNNY     81  68  65 S25G32    29.71R
ORD            SUNNY     80  64  58 S21G30    29.72R
THEDFORD       SUNNY     76  60  57 SW17G24   29.75R
$$

NEZ041-046>049-061>064-073>077-083>087-221600-
SOUTH CENTRAL NEBRASKA

CITY           SKY/WX    TMP DP  RH WIND       PRES   REMARKS
GRAND ISLAND   MOSUNNY   81  68  64 S22G33    29.78R
AURORA         SUNNY     80  67  63 S20G36    29.79S
HASTINGS       SUNNY     82  65  56 S18G26    29.81R
HEBRON         SUNNY     82  68  62 S17G23    29.84R
HOLDREGE       SUNNY     82  61  49 S24G31    29.77S
KEARNEY        SUNNY     82  65  56 S25G35    29.77R
YORK           MOSUNNY   81  68  65 S17G23    29.81S
$$

NEZ011>018-030>034-042>045-221600-
NORTHEAST NEBRASKA

CITY           SKY/WX    TMP DP  RH WIND       PRES   REMARKS
NORFOLK        SUNNY     80  68  66 S18G31    29.76R
ALBION         SUNNY     81  69  67 S15G26    29.77R
BLAIR          MOSUNNY   81  69  67 S17       29.84S
COLUMBUS       SUNNY     81  69  67 S16G25    29.79R
FREMONT        SUNNY     81  68  65 S15G25    29.82R
TEKAMAH        SUNNY     82  69  64 S16G22    29.82R
WAYNE          MOSUNNY   79  73  81 S17G26    29.77S
$$

NEZ050>053-065>068-078-088>093-221600-
SOUTHEAST NEBRASKA

CITY           SKY/WX    TMP DP  RH WIND       PRES   REMARKS
LINCOLN        SUNNY     83  68  60 S18G28    29.83R
OMAHA EPPLEY   MOSUNNY   81  69  67 S18       29.84S
BEATRICE       SUNNY     83  70  64 S15G23    29.85S
FALLS CITY     SUNNY     80  70  71 S13G22    29.90S
NEBRASKA CITY  SUNNY     81  73  76 S13       29.88S
PLATTSMOUTH    SUNNY     81  71  71 S15G23    29.87R
$$

NEZ044-045-051>053-067-221600-
OMAHA AREA

CITY           SKY/WX    TMP DP  RH WIND       PRES   REMARKS
OMAHA EPPLEY   MOSUNNY   81  69  67 S18       29.84S
BLAIR          MOSUNNY   81  69  67 S17       29.84S
FREMONT        SUNNY     81  68  65 S15G25    29.82R
MILLARD        SUNNY     85  71  63 S12G20    29.84S HX  90
OFFUTT AFB     SUNNY     81  71  70 SE14      29.85R
PLATTSMOUTH    SUNNY     81  71  71 S15G23    29.87R
WAHOO          FAIR      83  67  59 S18G26    29.82S
$$




USA.gov is the U.S. government's official web portal to all federal, state and local government web resources and services.